Flag for Canada Weather past 2 weeks in Cumberland County, Nova Scotia, Canada

Now
39 °F

Chilly.


Feels Like: 34 °F
Forecast: 37 / 44 °F
Wind: 7 mph from Northwest

Location: Kentville

Current Time: Oct 20, 2014 at 5:37:49 AM

Latest Report: Oct 20, 2014 at 5:00 AM


Visibility: N/A

Pressure: 29.63 "Hg

Humidity: 92%

Dew point: 37 °F

Location of Cumberland CountyLocation

Historic Weather in Cumberland County — Graph

°F

Cumberland County temperature yesterday

Maximum temperature yesterday: 62 °F (at 1:00 PM)
Minimum temperature yesterday: 47 °F (at 11:00 PM)
Average temperature yesterday: 56 °F

Past Weeks' High & Low Weather Summary

 TemperatureHumidityPressure
High75 °F (Oct 15, 3:00 PM)100% (Oct 7, 8:00 AM)30.32 "Hg (Oct 7, 8:00 AM)
Low35 °F (Oct 13, 7:00 AM)36% (Oct 6, 4:00 PM)29.49 "Hg (Oct 19, 3:00 AM)
Average56 °F81%29.96 "Hg
* Reported Oct 5 4:00 AM — Oct 20 4:00 AM, Cumberland County, Weather by CustomWeather, © 2014

Note: Actual official high and low records may vary slightly from our data, if they occured in-between our weather recording intervals... More about our weather records

Advertising

Cumberland County weather history for previous 24 hours

 ConditionsComfort  
Time TempWeatherWind HumidityBarometerVisibility
4:00 AM
Oct 20
39 °FChilly.7 mph93%29.61 "HgN/A
3:00 AM40 °FChilly.6 mph93%29.62 "HgN/A
2:00 AM41 °FQuite cool.7 mph91%29.61 "HgN/A
12:00 AM44 °FQuite cool.10 mph90%29.61 "HgN/A
11:00 PM
Oct 19
47 °FCool.8 mph91%29.59 "HgN/A
10:00 PM49 °FCool.6 mph93%29.60 "HgN/A
9:00 PM51 °FCool.7 mph91%29.62 "HgN/A
8:00 PM51 °FCool.2 mph92%29.63 "HgN/A
7:00 PM52 °FCool.2 mph90%29.62 "HgN/A
6:00 PM55 °FCool.6 mph78%29.63 "HgN/A
5:00 PM57 °FCool.3 mph77%29.60 "HgN/A
4:00 PM60 °FCool.5 mph73%29.60 "HgN/A
3:00 PM62 °FCool.6 mph66%29.60 "HgN/A
2:00 PM61 °FCool.7 mph68%29.58 "HgN/A
1:00 PM62 °FCool.8 mph70%29.60 "HgN/A
12:00 PM60 °FCool.10 mph70%29.60 "HgN/A
11:00 AM58 °FCool.10 mph81%29.59 "HgN/A
10:00 AM59 °FCool.7 mph86%29.57 "HgN/A
9:00 AM60 °FCool.6 mph87%29.54 "HgN/A
8:00 AM59 °FCool.5 mph87%29.52 "HgN/A
7:00 AM58 °FCool.3 mph82%29.50 "HgN/A
6:00 AM57 °FCool.2 mph91%29.49 "HgN/A
5:00 AM58 °FCool.3 mph89%29.49 "HgN/A
Weather by CustomWeather, © 2014

See weather overviewHow to use our weather pages